| time (UTC) | temp F | wind direction | speed MPH | gust MPH | rain 1hr in | rain 24hr in | rain mn in | humidity % | barometer mb |
| 20260510084505 | 44 | 55 | 0.0 | 0.0 | 0.00 | 0.00 | 0.00 | 63 | 1014.9 |
| 20260510084005 | 45 | 55 | 0.0 | 0.0 | 0.00 | 0.00 | 0.00 | 62 | 1014.9 |
| 20260510083505 | 45 | 55 | 0.0 | 0.0 | 0.00 | 0.00 | 0.00 | 62 | 1014.9 |
| 20260510083005 | 45 | 55 | 0.0 | 0.0 | 0.00 | 0.00 | 0.00 | 61 | 1014.8 |
| 20260510082505 | 45 | 55 | 0.0 | 0.0 | 0.00 | 0.00 | 0.00 | 60 | 1014.8 |
| 20260510082006 | 46 | 55 | 0.0 | 1.0 | 0.00 | 0.00 | 0.00 | 60 | 1014.7 |
| 20260510081505 | 46 | 55 | 0.0 | 1.0 | 0.00 | 0.00 | 0.00 | 61 | 1014.6 |
| 20260510081006 | 46 | 55 | 0.0 | 2.0 | 0.00 | 0.00 | 0.00 | 59 | 1014.6 |
| 20260510080504 | 46 | 55 | 0.0 | 2.0 | 0.00 | 0.00 | 0.00 | 59 | 1014.6 |
| 20260510080012 | 47 | 55 | 0.0 | 3.0 | 0.00 | 0.00 | 0.00 | 58 | 1014.5 |
| 20260510075504 | 47 | 55 | 1.0 | 3.0 | 0.00 | 0.00 | 0.00 | 59 | 1014.2 |
| 20260510075006 | 47 | 61 | 1.0 | 3.0 | 0.00 | 0.00 | 0.00 | 57 | 1014.3 |
| 20260510074506 | 47 | 57 | 0.0 | 3.0 | 0.00 | 0.00 | 0.00 | 57 | 1014.2 |
| 20260510074010 | 47 | 65 | 0.0 | 2.0 | 0.00 | 0.00 | 0.00 | 56 | 1014.2 |
| 20260510073504 | 48 | 57 | 1.0 | 8.0 | 0.00 | 0.00 | 0.00 | 57 | 1014.1 |
| 20260510073006 | 48 | 56 | 1.0 | 8.0 | 0.00 | 0.00 | 0.00 | 56 | 1014.0 |
| 20260510072505 | 48 | 53 | 1.0 | 5.0 | 0.00 | 0.00 | 0.00 | 57 | 1013.9 |
| 20260510071505 | 48 | 19 | 1.0 | 3.0 | 0.00 | 0.00 | 0.00 | 59 | 1013.7 |
| 20260510071007 | 48 | 55 | 1.0 | 4.0 | 0.00 | 0.00 | 0.00 | 61 | 1013.7 |
| 20260510070006 | 48 | 33 | 1.0 | 3.0 | 0.00 | 0.00 | 0.00 | 63 | 1013.5 |
| 20260510065009 | 47 | 36 | 0.0 | 3.0 | 0.00 | 0.00 | 0.00 | 66 | 1013.3 |
| 20260510064506 | 47 | 36 | 0.0 | 3.0 | 0.00 | 0.00 | 0.00 | 66 | 1013.3 |
| 20260510064005 | 47 | 53 | 0.0 | 2.0 | 0.00 | 0.00 | 0.00 | 67 | 1013.2 |
| 20260510063504 | 46 | 53 | 0.0 | 2.0 | 0.00 | 0.00 | 0.00 | 69 | 1013.0 |
| 20260510063006 | 45 | 51 | 0.0 | 3.0 | 0.00 | 0.00 | 0.00 | 71 | 1013.0 |
| 20260510062504 | 45 | 51 | 0.0 | 3.0 | 0.00 | 0.00 | 0.00 | 73 | 1013.0 |
| 20260510062005 | 45 | 60 | 0.0 | 1.0 | 0.00 | 0.00 | 0.00 | 75 | 1012.9 |
| 20260510061506 | 45 | 60 | 0.0 | 1.0 | 0.00 | 0.00 | 0.00 | 74 | 1012.8 |
| 20260510060505 | 45 | 60 | 0.0 | 0.0 | 0.00 | 0.00 | 0.00 | 73 | 1012.7 |
| 20260510060010 | 45 | 60 | 0.0 | 0.0 | 0.00 | 0.00 | 0.00 | 72 | 1012.5 |
| 20260510055505 | 45 | 60 | 0.0 | 0.0 | 0.00 | 0.00 | 0.00 | 72 | 1012.6 |
| 20260510055008 | 45 | 60 | 0.0 | 0.0 | 0.00 | 0.00 | 0.00 | 72 | 1012.6 |
| 20260510054506 | 45 | 60 | 0.0 | 0.0 | 0.00 | 0.00 | 0.00 | 71 | 1012.4 |
| 20260510054007 | 46 | 60 | 0.0 | 0.0 | 0.00 | 0.00 | 0.00 | 71 | 1012.4 |
| 20260510053505 | 46 | 60 | 0.0 | 0.0 | 0.00 | 0.00 | 0.00 | 70 | 1012.3 |
| 20260510053005 | 46 | 60 | 0.0 | 0.0 | 0.00 | 0.00 | 0.00 | 70 | 1012.3 |
| 20260510052505 | 46 | 60 | 0.0 | 0.0 | 0.00 | 0.00 | 0.00 | 69 | 1012.2 |
| 20260510052006 | 46 | 60 | 0.0 | 0.0 | 0.00 | 0.00 | 0.00 | 70 | 1012.1 |
| 20260510051506 | 47 | 60 | 0.0 | 0.0 | 0.00 | 0.00 | 0.00 | 69 | 1012.0 |
| 20260510051006 | 47 | 60 | 0.0 | 0.0 | 0.00 | 0.00 | 0.00 | 69 | 1011.9 |
| 20260510050507 | 47 | 60 | 0.0 | 0.0 | 0.00 | 0.00 | 0.00 | 69 | 1011.8 |
| 20260510045505 | 47 | 60 | 0.0 | 0.0 | 0.00 | 0.00 | 0.00 | 68 | 1011.6 |
| 20260510045016 | 48 | 60 | 0.0 | 0.0 | 0.00 | 0.00 | 0.00 | 67 | 1011.7 |
| 20260510044507 | 48 | 60 | 0.0 | 0.0 | 0.00 | 0.00 | 0.00 | 67 | 1011.5 |
| 20260510044007 | 48 | 60 | 0.0 | 0.0 | 0.00 | 0.00 | 0.00 | 66 | 1011.5 |
| 20260510043507 | 48 | 60 | 0.0 | 0.0 | 0.00 | 0.00 | 0.00 | 64 | 1011.3 |
| 20260510043006 | 49 | 60 | 0.0 | 0.0 | 0.00 | 0.00 | 0.00 | 64 | 1011.2 |
| 20260510042504 | 49 | 60 | 0.0 | 0.0 | 0.00 | 0.00 | 0.00 | 62 | 1011.1 |
| 20260510041508 | 49 | 60 | 0.0 | 0.0 | 0.00 | 0.00 | 0.00 | 62 | 1011.0 |
| 20260510040509 | 49 | 60 | 0.0 | 0.0 | 0.00 | 0.00 | 0.00 | 62 | 1010.8 |
| 20260510040007 | 50 | 60 | 0.0 | 1.0 | 0.00 | 0.00 | 0.00 | 62 | 1010.7 |
| 20260510035506 | 50 | 60 | 0.0 | 1.0 | 0.00 | 0.00 | 0.00 | 61 | 1010.8 |
| 20260510035006 | 50 | 60 | 0.0 | 0.0 | 0.00 | 0.00 | 0.00 | 62 | 1010.6 |
| 20260510034505 | 51 | 60 | 0.0 | 0.0 | 0.00 | 0.00 | 0.00 | 60 | 1010.7 |
| 20260510033505 | 51 | 60 | 0.0 | 0.0 | 0.00 | 0.00 | 0.00 | 58 | 1010.6 |
| 20260510033006 | 51 | 60 | 0.0 | 0.0 | 0.00 | 0.00 | 0.00 | 58 | 1010.6 |
| 20260510032507 | 52 | 60 | 0.0 | 0.0 | 0.00 | 0.00 | 0.00 | 57 | 1010.5 |
| 20260510032006 | 52 | 60 | 0.0 | 0.0 | 0.00 | 0.00 | 0.00 | 57 | 1010.5 |
| 20260510031505 | 52 | 60 | 0.0 | 0.0 | 0.00 | 0.00 | 0.00 | 55 | 1010.5 |
| 20260510031006 | 52 | 60 | 0.0 | 0.0 | 0.00 | 0.00 | 0.00 | 55 | 1010.4 |
| 20260510030507 | 53 | 60 | 0.0 | 0.0 | 0.00 | 0.00 | 0.00 | 55 | 1010.3 |
| 20260510030006 | 53 | 60 | 0.0 | 0.0 | 0.00 | 0.00 | 0.00 | 54 | 1010.2 |
| 20260510025005 | 54 | 60 | 0.0 | 0.0 | 0.00 | 0.00 | 0.00 | 51 | 1010.0 |
| 20260510024505 | 54 | 60 | 0.0 | 0.0 | 0.00 | 0.00 | 0.00 | 52 | 1009.9 |
| 20260510024005 | 54 | 60 | 0.0 | 0.0 | 0.00 | 0.00 | 0.00 | 51 | 1009.8 |
| 20260510023505 | 55 | 60 | 0.0 | 0.0 | 0.00 | 0.00 | 0.00 | 49 | 1009.8 |
| 20260510023006 | 55 | 60 | 0.0 | 1.0 | 0.00 | 0.00 | 0.00 | 50 | 1009.7 |
| 20260510022509 | 55 | 60 | 0.0 | 1.0 | 0.00 | 0.00 | 0.00 | 50 | 1009.6 |
| 20260510022010 | 55 | 61 | 0.0 | 2.0 | 0.00 | 0.00 | 0.00 | 49 | 1009.5 |
| 20260510021506 | 56 | 61 | 0.0 | 2.0 | 0.00 | 0.00 | 0.00 | 48 | 1009.5 |
| 20260510021005 | 56 | 58 | 0.0 | 2.0 | 0.00 | 0.00 | 0.00 | 48 | 1009.1 |
| 20260510020505 | 56 | 55 | 0.0 | 2.0 | 0.00 | 0.00 | 0.00 | 47 | 1009.1 |
| 20260510020005 | 56 | 55 | 0.0 | 1.0 | 0.00 | 0.00 | 0.00 | 47 | 1009.0 |
| 20260510015504 | 57 | 53 | 0.0 | 1.0 | 0.00 | 0.00 | 0.00 | 48 | 1009.0 |
| 20260510015006 | 57 | 54 | 0.0 | 3.0 | 0.00 | 0.00 | 0.00 | 46 | 1009.0 |
| 20260510014505 | 58 | 54 | 0.0 | 3.0 | 0.00 | 0.00 | 0.00 | 46 | 1008.8 |
| 20260510014009 | 58 | 51 | 0.0 | 2.0 | 0.00 | 0.00 | 0.00 | 46 | 1008.7 |
| 20260510012506 | 60 | 32 | 1.0 | 5.0 | 0.00 | 0.00 | 0.00 | 43 | 1008.2 |
| 20260510012007 | 61 | 67 | 1.0 | 5.0 | 0.00 | 0.00 | 0.00 | 41 | 1008.1 |
| 20260510011506 | 63 | 58 | 1.0 | 5.0 | 0.00 | 0.00 | 0.00 | 39 | 1007.8 |
| 20260510011006 | 65 | 23 | 0.0 | 5.0 | 0.00 | 0.00 | 0.00 | 37 | 1007.6 |
| 20260510010505 | 65 | 283 | 1.0 | 7.0 | 0.00 | 0.00 | 0.00 | 36 | 1007.5 |
| 20260510010006 | 65 | 300 | 2.0 | 7.0 | 0.00 | 0.00 | 0.00 | 36 | 1007.4 |
| 20260510005505 | 66 | 263 | 1.0 | 7.0 | 0.00 | 0.00 | 0.00 | 36 | 1007.4 |
| 20260510005005 | 66 | 306 | 1.0 | 7.0 | 0.00 | 0.00 | 0.00 | 37 | 1007.2 |
| 20260510004505 | 66 | 285 | 1.0 | 7.0 | 0.00 | 0.00 | 0.00 | 36 | 1007.2 |
| 20260510003504 | 67 | 274 | 2.0 | 11.0 | 0.00 | 0.00 | 0.00 | 36 | 1007.0 |
| 20260510002506 | 67 | 280 | 1.0 | 5.0 | 0.00 | 0.00 | 0.00 | 36 | 1006.7 |
| 20260510002005 | 68 | 273 | 2.0 | 8.0 | 0.00 | 0.00 | 0.00 | 36 | 1006.6 |
| 20260510001507 | 68 | 319 | 2.0 | 8.0 | 0.00 | 0.00 | 0.00 | 35 | 1006.5 |
| 20260510001005 | 68 | 282 | 2.0 | 9.0 | 0.00 | 0.00 | 0.00 | 36 | 1006.4 |
| 20260510000507 | 68 | 277 | 2.0 | 9.0 | 0.00 | 0.00 | 0.00 | 35 | 1006.3 |
| 20260510000022 | 68 | 279 | 1.0 | 4.0 | 0.00 | 0.00 | 0.00 | 36 | 1006.2 |
| 20260509235506 | 69 | 286 | 2.0 | 5.0 | 0.00 | 0.00 | 0.00 | 35 | 1006.2 |
| 20260509235009 | 69 | 284 | 2.0 | 8.0 | 0.00 | 0.00 | 0.00 | 35 | 1006.0 |
| 20260509234506 | 69 | 290 | 3.0 | 8.0 | 0.00 | 0.00 | 0.00 | 34 | 1006.0 |
| 20260509233505 | 70 | 285 | 2.0 | 8.0 | 0.00 | 0.00 | 0.00 | 35 | 1005.7 |
| 20260509232506 | 70 | 298 | 3.0 | 11.0 | 0.00 | 0.00 | 0.00 | 35 | 1005.6 |
| 20260509232007 | 70 | 288 | 3.0 | 10.0 | 0.00 | 0.00 | 0.00 | 33 | 1005.6 |
| 20260509231505 | 71 | 285 | 3.0 | 11.0 | 0.00 | 0.00 | 0.00 | 33 | 1005.5 |
| 20260509231005 | 71 | 302 | 3.0 | 11.0 | 0.00 | 0.00 | 0.00 | 33 | 1005.4 |
| 20260509230505 | 72 | 290 | 3.0 | 8.0 | 0.00 | 0.00 | 0.00 | 33 | 1005.4 |
| 20260509225506 | 72 | 275 | 3.0 | 13.0 | 0.00 | 0.00 | 0.00 | 31 | 1005.4 |
| 20260509225006 | 73 | 265 | 3.0 | 13.0 | 0.00 | 0.00 | 0.00 | 33 | 1005.6 |
| 20260509224505 | 72 | 272 | 3.0 | 13.0 | 0.00 | 0.00 | 0.00 | 33 | 1005.1 |
| 20260509223007 | 73 | 280 | 4.0 | 13.0 | 0.00 | 0.00 | 0.00 | 30 | 1005.1 |
| 20260509222505 | 74 | 296 | 4.0 | 14.0 | 0.00 | 0.00 | 0.00 | 29 | 1005.0 |
| 20260509221505 | 75 | 292 | 5.0 | 18.0 | 0.00 | 0.00 | 0.00 | 29 | 1005.0 |
| 20260509221006 | 75 | 293 | 5.0 | 17.0 | 0.00 | 0.00 | 0.00 | 30 | 1004.9 |
| 20260509220008 | 75 | 306 | 6.0 | 19.0 | 0.00 | 0.00 | 0.00 | 30 | 1004.7 |
| 20260509215504 | 75 | 292 | 6.0 | 19.0 | 0.00 | 0.00 | 0.00 | 29 | 1004.6 |
| 20260509215005 | 75 | 268 | 4.0 | 20.0 | 0.00 | 0.00 | 0.00 | 29 | 1004.6 |
| 20260509214506 | 75 | 279 | 4.0 | 20.0 | 0.00 | 0.00 | 0.00 | 28 | 1004.6 |
| 20260509214006 | 76 | 240 | 4.0 | 18.0 | 0.00 | 0.00 | 0.00 | 31 | 1004.2 |
| 20260509213508 | 76 | 286 | 4.0 | 10.0 | 0.00 | 0.00 | 0.00 | 31 | 1004.2 |
| 20260509213005 | 75 | 286 | 5.0 | 13.0 | 0.00 | 0.00 | 0.00 | 30 | 1004.2 |
| 20260509212504 | 76 | 294 | 5.0 | 14.0 | 0.00 | 0.00 | 0.00 | 28 | 1004.1 |
| 20260509212006 | 76 | 281 | 5.0 | 16.0 | 0.00 | 0.00 | 0.00 | 30 | 1004.2 |
| 20260509211006 | 76 | 291 | 5.0 | 13.0 | 0.00 | 0.00 | 0.00 | 26 | 1004.1 |
| 20260509210505 | 76 | 262 | 5.0 | 16.0 | 0.00 | 0.00 | 0.00 | 29 | 1004.0 |
| 20260509210006 | 76 | 302 | 5.0 | 17.0 | 0.00 | 0.00 | 0.00 | 31 | 1004.0 |
| 20260509205505 | 75 | 290 | 6.0 | 17.0 | 0.00 | 0.00 | 0.00 | 29 | 1003.9 |
| 20260509205006 | 75 | 294 | 5.0 | 19.0 | 0.00 | 0.00 | 0.00 | 30 | 1003.9 |
| 20260509204505 | 74 | 295 | 5.0 | 19.0 | 0.00 | 0.00 | 0.00 | 31 | 1003.8 |
| 20260509204005 | 74 | 277 | 4.0 | 11.0 | 0.00 | 0.00 | 0.00 | 31 | 1003.8 |
| 20260509203505 | 75 | 273 | 4.0 | 19.0 | 0.00 | 0.00 | 0.00 | 30 | 1003.9 |
| 20260509203005 | 74 | 293 | 5.0 | 19.0 | 0.00 | 0.00 | 0.00 | 32 | 1003.8 |
| 20260509202506 | 75 | 269 | 5.0 | 17.0 | 0.00 | 0.00 | 0.00 | 29 | 1003.8 |
| 20260509201506 | 74 | 233 | 4.0 | 18.0 | 0.00 | 0.00 | 0.00 | 30 | 1003.9 |
| 20260509200013 | 74 | 287 | 4.0 | 18.0 | 0.00 | 0.00 | 0.00 | 31 | 1004.0 |
| 20260509195504 | 73 | 267 | 3.0 | 10.0 | 0.00 | 0.00 | 0.00 | 32 | 1004.1 |
| 20260509195006 | 72 | 192 | 3.0 | 11.0 | 0.00 | 0.00 | 0.00 | 32 | 1004.1 |
| 20260509194504 | 72 | 284 | 5.0 | 12.0 | 0.00 | 0.00 | 0.00 | 30 | 1004.1 |
| 20260509194005 | 71 | 201 | 5.0 | 12.0 | 0.00 | 0.00 | 0.00 | 31 | 1004.0 |
| 20260509193505 | 71 | 242 | 4.0 | 14.0 | 0.00 | 0.00 | 0.00 | 32 | 1004.1 |
| 20260509193006 | 71 | 294 | 4.0 | 14.0 | 0.00 | 0.00 | 0.00 | 32 | 1004.2 |
| 20260509192504 | 72 | 326 | 4.0 | 14.0 | 0.00 | 0.00 | 0.00 | 31 | 1004.1 |
| 20260509192005 | 71 | 236 | 3.0 | 13.0 | 0.00 | 0.00 | 0.00 | 34 | 1004.1 |
| 20260509191005 | 71 | 269 | 5.0 | 17.0 | 0.00 | 0.00 | 0.00 | 32 | 1004.2 |
| 20260509190006 | 72 | 212 | 3.0 | 11.0 | 0.00 | 0.00 | 0.00 | 33 | 1004.0 |
| 20260509185006 | 73 | 237 | 4.0 | 14.0 | 0.00 | 0.00 | 0.00 | 29 | 1003.9 |
| 20260509184505 | 74 | 215 | 4.0 | 14.0 | 0.00 | 0.00 | 0.00 | 31 | 1003.9 |
| 20260509184010 | 74 | 283 | 3.0 | 10.0 | 0.00 | 0.00 | 0.00 | 35 | 1003.8 |
| 20260509183505 | 73 | 288 | 3.0 | 10.0 | 0.00 | 0.00 | 0.00 | 33 | 1003.8 |
| 20260509183007 | 72 | 284 | 2.0 | 7.0 | 0.00 | 0.00 | 0.00 | 35 | 1003.7 |
| 20260509182505 | 71 | 294 | 3.0 | 10.0 | 0.00 | 0.00 | 0.00 | 37 | 1003.8 |
| 20260509182005 | 71 | 276 | 3.0 | 10.0 | 0.00 | 0.00 | 0.00 | 35 | 1003.9 |
| 20260509181507 | 71 | 277 | 3.0 | 13.0 | 0.00 | 0.00 | 0.00 | 34 | 1003.9 |
| 20260509180505 | 71 | 285 | 3.0 | 11.0 | 0.00 | 0.00 | 0.00 | 34 | 1003.9 |
| 20260509180007 | 71 | 276 | 3.0 | 9.0 | 0.00 | 0.00 | 0.00 | 35 | 1004.0 |
| 20260509175504 | 71 | 229 | 3.0 | 16.0 | 0.00 | 0.00 | 0.00 | 34 | 1004.1 |
| 20260509175006 | 71 | 200 | 4.0 | 16.0 | 0.00 | 0.00 | 0.00 | 31 | 1004.2 |
| 20260509174509 | 71 | 295 | 3.0 | 17.0 | 0.00 | 0.00 | 0.00 | 30 | 1004.1 |
| 20260509174012 | 72 | 121 | 3.0 | 13.0 | 0.00 | 0.00 | 0.00 | 33 | 1004.2 |
| 20260509173505 | 72 | 259 | 4.0 | 11.0 | 0.00 | 0.00 | 0.00 | 35 | 1004.1 |
| 20260509172505 | 70 | 300 | 3.0 | 11.0 | 0.00 | 0.00 | 0.00 | 36 | 1004.3 |
| 20260509172005 | 71 | 276 | 4.0 | 12.0 | 0.00 | 0.00 | 0.00 | 38 | 1004.2 |
| 20260509171505 | 71 | 298 | 3.0 | 12.0 | 0.00 | 0.00 | 0.00 | 38 | 1004.2 |
| 20260509171007 | 71 | 259 | 3.0 | 12.0 | 0.00 | 0.00 | 0.00 | 38 | 1004.1 |
| 20260509170505 | 70 | 292 | 3.0 | 10.0 | 0.00 | 0.00 | 0.00 | 43 | 1004.1 |
| 20260509170007 | 70 | 283 | 2.0 | 10.0 | 0.00 | 0.00 | 0.00 | 46 | 1004.1 |
| 20260509165504 | 70 | 261 | 2.0 | 8.0 | 0.00 | 0.00 | 0.00 | 51 | 1004.1 |
| 20260509165006 | 69 | 281 | 2.0 | 7.0 | 0.00 | 0.00 | 0.00 | 54 | 1004.2 |
| 20260509164505 | 69 | 218 | 2.0 | 6.0 | 0.00 | 0.00 | 0.00 | 53 | 1004.2 |
| 20260509163505 | 68 | 289 | 2.0 | 9.0 | 0.00 | 0.00 | 0.00 | 55 | 1004.0 |
| 20260509163007 | 67 | 259 | 2.0 | 9.0 | 0.00 | 0.00 | 0.00 | 54 | 1004.1 |
| 20260509162506 | 67 | 290 | 1.0 | 6.0 | 0.00 | 0.00 | 0.00 | 55 | 1004.3 |
| 20260509162005 | 67 | 223 | 2.0 | 6.0 | 0.00 | 0.00 | 0.00 | 54 | 1004.1 |
| 20260509161505 | 67 | 211 | 2.0 | 7.0 | 0.00 | 0.00 | 0.00 | 54 | 1004.2 |
| 20260509161006 | 66 | 227 | 1.0 | 7.0 | 0.00 | 0.00 | 0.00 | 57 | 1004.2 |
| 20260509160505 | 66 | 242 | 2.0 | 9.0 | 0.00 | 0.00 | 0.00 | 59 | 1004.1 |
| 20260509160011 | 65 | 256 | 3.0 | 9.0 | 0.00 | 0.00 | 0.00 | 60 | 1004.1 |
| 20260509155505 | 65 | 202 | 2.0 | 6.0 | 0.00 | 0.00 | 0.00 | 58 | 1004.2 |
| 20260509154505 | 64 | 196 | 2.0 | 7.0 | 0.00 | 0.00 | 0.00 | 64 | 1004.1 |
| 20260509154006 | 64 | 266 | 2.0 | 7.0 | 0.00 | 0.00 | 0.00 | 64 | 1004.1 |
| 20260509153502 | 63 | 219 | 2.0 | 7.0 | 0.00 | 0.00 | 0.00 | 64 | 1004.1 |
| 20260509153006 | 63 | 296 | 2.0 | 10.0 | 0.00 | 0.00 | 0.00 | 64 | 1004.1 |
| 20260509152506 | 63 | 246 | 2.0 | 7.0 | 0.00 | 0.00 | 0.00 | 64 | 1004.1 |
| 20260509152005 | 63 | 215 | 2.0 | 7.0 | 0.00 | 0.00 | 0.00 | 66 | 1004.2 |
| 20260509151005 | 62 | 261 | 3.0 | 9.0 | 0.00 | 0.00 | 0.00 | 67 | 1004.2 |
| 20260509150504 | 62 | 254 | 3.0 | 9.0 | 0.00 | 0.00 | 0.00 | 67 | 1004.3 |
| 20260509150008 | 62 | 263 | 2.0 | 9.0 | 0.00 | 0.00 | 0.00 | 67 | 1004.4 |
| 20260509145507 | 62 | 238 | 2.0 | 9.0 | 0.00 | 0.00 | 0.00 | 69 | 1004.2 |
| 20260509145007 | 61 | 217 | 2.0 | 9.0 | 0.00 | 0.00 | 0.00 | 71 | 1004.2 |
| 20260509143504 | 60 | 283 | 3.0 | 9.0 | 0.00 | 0.00 | 0.00 | 71 | 1004.1 |
| 20260509143006 | 60 | 237 | 3.0 | 9.0 | 0.00 | 0.00 | 0.00 | 71 | 1004.2 |
| 20260509142008 | 60 | 206 | 2.0 | 7.0 | 0.00 | 0.00 | 0.00 | 74 | 1004.1 |
| 20260509141505 | 59 | 229 | 2.0 | 7.0 | 0.00 | 0.00 | 0.00 | 73 | 1004.0 |
| 20260509141006 | 59 | 178 | 2.0 | 9.0 | 0.00 | 0.00 | 0.00 | 74 | 1003.9 |
| 20260509140506 | 59 | 241 | 2.0 | 9.0 | 0.00 | 0.00 | 0.00 | 76 | 1003.9 |
| 20260509140008 | 58 | 245 | 2.0 | 6.0 | 0.00 | 0.00 | 0.00 | 77 | 1004.1 |
| 20260509135504 | 58 | 213 | 2.0 | 8.0 | 0.00 | 0.00 | 0.00 | 77 | 1004.1 |
| 20260509135007 | 58 | 227 | 2.0 | 8.0 | 0.00 | 0.00 | 0.00 | 76 | 1003.8 |
| 20260509134005 | 57 | 198 | 2.0 | 8.0 | 0.00 | 0.00 | 0.00 | 78 | 1003.8 |
| 20260509133506 | 57 | 219 | 2.0 | 8.0 | 0.00 | 0.00 | 0.00 | 78 | 1003.7 |
| 20260509133007 | 57 | 284 | 1.0 | 7.0 | 0.00 | 0.00 | 0.00 | 80 | 1003.9 |
| 20260509132507 | 57 | 198 | 1.0 | 7.0 | 0.00 | 0.00 | 0.00 | 80 | 1003.8 |
| 20260509132014 | 56 | 248 | 2.0 | 7.0 | 0.00 | 0.00 | 0.00 | 81 | 1003.9 |
| 20260509131005 | 56 | 214 | 2.0 | 6.0 | 0.00 | 0.00 | 0.00 | 81 | 1004.0 |
| 20260509130006 | 55 | 289 | 1.0 | 5.0 | 0.00 | 0.00 | 0.00 | 83 | 1004.0 |
| 20260509125500 | 54 | 225 | 1.0 | 7.0 | 0.00 | 0.00 | 0.00 | 85 | 1004.0 |
| 20260509125007 | 54 | 320 | 1.0 | 7.0 | 0.00 | 0.00 | 0.00 | 85 | 1004.0 |
| 20260509124503 | 54 | 246 | 0.0 | 4.0 | 0.00 | 0.00 | 0.00 | 87 | 1003.9 |
| 20260509124005 | 53 | 213 | 1.0 | 3.0 | 0.00 | 0.00 | 0.00 | 87 | 1003.8 |
| 20260509123501 | 53 | 238 | 1.0 | 3.0 | 0.00 | 0.00 | 0.00 | 88 | 1003.9 |
| 20260509122005 | 52 | 239 | 1.0 | 7.0 | 0.00 | 0.00 | 0.00 | 89 | 1003.7 |
| 20260509121504 | 52 | 227 | 1.0 | 7.0 | 0.00 | 0.00 | 0.00 | 90 | 1003.8 |
| 20260509121006 | 52 | 225 | 1.0 | 7.0 | 0.00 | 0.00 | 0.00 | 90 | 1003.7 |
| 20260509120501 | 51 | 237 | 2.0 | 5.0 | 0.00 | 0.00 | 0.00 | 91 | 1003.8 |
| 20260509115505 | 51 | 233 | 1.0 | 6.0 | 0.00 | 0.00 | 0.00 | 91 | 1003.9 |
| 20260509115005 | 51 | 221 | 0.0 | 5.0 | 0.00 | 0.00 | 0.00 | 91 | 1003.7 |
| 20260509114005 | 51 | 217 | 0.0 | 4.0 | 0.00 | 0.00 | 0.00 | 91 | 1003.7 |
| 20260509113504 | 51 | 215 | 1.0 | 4.0 | 0.00 | 0.00 | 0.00 | 91 | 1003.6 |
| 20260509113007 | 51 | 215 | 1.0 | 5.0 | 0.00 | 0.00 | 0.00 | 91 | 1003.6 |
| 20260509112006 | 51 | 232 | 1.0 | 5.0 | 0.00 | 0.00 | 0.00 | 91 | 1003.5 |
| 20260509111505 | 51 | 229 | 1.0 | 5.0 | 0.00 | 0.00 | 0.00 | 91 | 1003.4 |
| 20260509110505 | 51 | 226 | 1.0 | 5.0 | 0.00 | 0.00 | 0.00 | 91 | 1003.5 |
| 20260509110007 | 51 | 222 | 1.0 | 5.0 | 0.00 | 0.00 | 0.00 | 91 | 1003.5 |
| 20260509105504 | 51 | 254 | 1.0 | 3.0 | 0.00 | 0.00 | 0.00 | 91 | 1003.6 |
| 20260509104005 | 51 | 288 | 1.0 | 5.0 | 0.00 | 0.00 | 0.00 | 91 | 1003.5 |
| 20260509103505 | 51 | 227 | 1.0 | 5.0 | 0.00 | 0.00 | 0.00 | 91 | 1003.2 |
| 20260509103005 | 51 | 214 | 1.0 | 5.0 | 0.00 | 0.00 | 0.00 | 91 | 1003.2 |
| 20260509102500 | 51 | 221 | 0.0 | 3.0 | 0.00 | 0.00 | 0.00 | 91 | 1003.3 |
| 20260509102005 | 51 | 219 | 0.0 | 2.0 | 0.00 | 0.00 | 0.00 | 90 | 1003.2 |
| 20260509101505 | 51 | 229 | 0.0 | 3.0 | 0.00 | 0.00 | 0.00 | 90 | 1003.1 |
| 20260509101005 | 51 | 229 | 0.0 | 3.0 | 0.00 | 0.00 | 0.00 | 91 | 1003.1 |
| 20260509100500 | 51 | 250 | 0.0 | 4.0 | 0.00 | 0.00 | 0.00 | 91 | 1003.2 |
| 20260509100013 | 51 | 221 | 0.0 | 4.0 | 0.00 | 0.00 | 0.00 | 91 | 1003.3 |
| 20260509095505 | 51 | 218 | 0.0 | 1.0 | 0.00 | 0.00 | 0.00 | 90 | 1003.3 |
| 20260509095007 | 51 | 218 | 0.0 | 3.0 | 0.00 | 0.00 | 0.00 | 91 | 1003.4 |
| 20260509094507 | 51 | 221 | 0.0 | 3.0 | 0.00 | 0.00 | 0.00 | 91 | 1003.4 |
| 20260509094005 | 51 | 221 | 0.0 | 2.0 | 0.00 | 0.00 | 0.00 | 90 | 1003.5 |
| 20260509093007 | 51 | 221 | 0.0 | 4.0 | 0.00 | 0.00 | 0.00 | 90 | 1003.7 |
| 20260509092505 | 51 | 221 | 0.0 | 4.0 | 0.00 | 0.00 | 0.00 | 90 | 1003.7 |
| 20260509091006 | 51 | 271 | 0.0 | 3.0 | 0.00 | 0.00 | 0.00 | 90 | 1003.9 |
| 20260509085501 | 50 | 223 | 0.0 | 3.0 | 0.00 | 0.00 | 0.00 | 90 | 1003.9 |
| 20260509085006 | 50 | 223 | 0.0 | 1.0 | 0.00 | 0.00 | 0.00 | 90 | 1003.9 |